Overview Statistics Trail Chart Weather Telemetry Raw packets
 

This is the latest recevied weather packets stored in our database for station/object VK2EHQ. If no packets are shown the sender has not sent any weather packets the latest 10 day(s).

<< 29 30 31 32 33 34 35 >>
Time Temp. Humidity Pressure Rain* Wind** Luminosity Snow
1788108059 11.67° C 58% 1030.8 hPa 0 mm - - -
1788107459 11.67° C 59% 1030.8 hPa 0 mm - - -
1788106859 11.67° C 60% 1030.8 hPa 0 mm - - -
1788106259 11.67° C 60% 1030.9 hPa 0 mm - - -
1788105659 12.22° C 61% 1031 hPa 0 mm - - -
1788105059 12.22° C 61% 1031 hPa 0 mm - - -
1788104459 12.78° C 62% 1031.1 hPa 0 mm - - -
1788103859 12.78° C 64% 1031.1 hPa 0 mm - - -
1788103259 12.78° C 67% 1031.2 hPa 0 mm - - -
1788102659 12.78° C 68% 1031.3 hPa 0 mm - - -
1788102059 12.78° C 69% 1031.3 hPa 0 mm - - -
1788101459 12.22° C 68% 1031.4 hPa 0 mm - - -
1788100858 12.22° C 66% 1031.3 hPa 0 mm - - -
1788100258 12.22° C 65% 1031.4 hPa 0 mm - - -
1788099658 11.67° C 64% 1031.3 hPa 0 mm - - -
1788099058 11.67° C 64% 1031.3 hPa 0 mm - - -
1788098458 11.67° C 64% 1031.2 hPa 0 mm - - -
1788097828 11.67° C 64% 1031.2 hPa 0 mm - - -
1788097228 11.67° C 65% 1031.3 hPa 0 mm - - -
1788096628 11.67° C 65% 1031.3 hPa 0 mm - - -
1788096028 11.67° C 66% 1031.3 hPa 0 mm - - -
1788095428 11.67° C 67% 1031.3 hPa 0 mm - - -
1788094828 11.67° C 67% 1031.3 hPa 0 mm - - -
1788094236 11.11° C 67% 1031.4 hPa 0 mm - - -
1788094228 11.11° C 67% 1031.4 hPa 0 mm - - -

* Rain latest hour (hover to see other rain measurements)
** Current wind speed in m/s (hover to see current wind gust speed)